SCP
0 0 0 0 0 0 0 0 0 0 0 0 0 0 0 0 0 0 0 0 0 0 0 0 0 0 0 0 0 0 0 0 0 0 0 0 0 0 0 0 0 0 0 0 0 0 0 0 0
0 0 0 0 0 0 0 0 0 0 0 0 0 0 0 0 0 0 0 0 0 0 0 0 0 0 0 0 0 0 0 0 0 0 0 0 0 0 0 0 0 0 0 0 0 0 0 0 0
0 0 0 0 0 0 0 0 0 0 0 0 0 0 0 0 0 0 0 0 0 0 0 0 0 0 0 0 0 0 0 0 0 0 0 0 0 0 0 0 0 0 0 0 0 0 0 0 0
0 0 0 0 0 0 0 0 0 0 0 0 0 0 0 0 0 0 0 0 0 0 0 0 0 0 0 0 0 0 0 0 0 0 0 0 0 0 0 0 0 0 0 0 0 0 0 0 0
0 0 0 0 0 0 0 0 0 0 0 0 0 0 0 0 0 0 0 0 0 0 0 0 0 0 0 0 0 0 0 0 0 0 0 0 0 0 0 0 0 0 0 0 0 0 0 0 0
0 0 0 0 0 0 0 0 0 0 0 0 0 0 0 0 0 0 0 0 0 0 0 0 0 0 0 0 0 0 0 0 0 0 0 0 0 0 0 0 0 0 0 0 0 0 0 0 0
0 0 0 0 0 0 0 0 0 0 0 0 0 0 0 0 0 0 0 0 0 0 0 0 0 0 0 0 0 0 0 0 0 0 0 0 0 0 0 0 0 0 0 0 0 0 0 0 0
0 0 0 0 0 0 0 0 0 0 0 0 0 0 0 0 0 0 0 0 0 0 0 0 0 0 0 0 0 0 0 0 0 0 0 0 0 0 0 0 0 0 0 0 0 0 0 0 0
0 0 0 0 0 0 0 0 0 0 0 0 0 0 0 0 0 0 0 0 0 0 0 0 0 0 0 0 0 0 0 0 0 0 0 0 0 0 0 0 0 0 0 0 0 0 0 0 0
0 0 0 0 0 0 0 0 0 0 0 0 0 0 0 0 0 0 0 0 0 0 0 0 0 0 0 0 0 0 0 0 0 0 0 0 0 0 0 0 0 0 0 0 0 0 0 0 0
0 0 0 0 0 0 0 0 0 0 0 0 0 0 0 0 0 0 0 0 0 0 0 -0 -0 0 0 0 0 0 0 0 0 0 0 0 0 0 0 0 0 0 0 0 0 0 0 0 0
0 0 0 0 0 0 0 0 0 0 0 0 0 0 0 0 0 0 0 0 0 0 -0 -0 -0 0 0 0 0 0 0 0 0 0 0 0 0 0 0 0 0 0 0 0 0 0 0 0 0
0 0 0 0 0 0 0 0 0 0 0 0 0 0 0 0 0 0 0 0 0 -0 -0 -0 -0 -0 0 0 0 0 0 0 0 0 0 0 0 0 0 0 0 0 0 0 0 0 0 0 0
0 0 0 0 0 0 0 0 0 0 0 0 0 0 0 0 0 0 0 0 0 -0 -0 -0 -0 0 0 0 0 0 0 0 0 0 0 0 0 0 0 0 0 0 0 0 0 0 0 0 0
0 0 0 0 0 0 0 0 0 0 0 0 0 0 0 0 0 0 0 0 0 -0 0 0 0 0 0 0 0 0 0 0 0 0 0 0 0 0 0 0 0 0 0 0 0 0 0 0 0
0 0 0 0 0 0 0 0 0 0 0 0 0 0 0 0 0 0 -0 0 0 0 0 0 0 0 0 0 0 0 0 0 0 0 0 0 0 0 0 0 0 0 0 0 0 0 0 0 0
0 0 0 0 0 -0 0 0 0 0 0 0 0 0 0 0 0 0 0 0 0 0 0 0 0 0 0 0 0 0 0 0 0 0 0 0 0 0 0 0 0 0 0 0 0 0 0 0 0
0 0 0 0 -0 0 0 0 0 0 0 0 0 0 0 0 0 0 0 0 0 0 0 0 0 0 0 0 0 0 0 0 0 0 0 0 0 0 0 0 0 0 0 0 0 0 0 0 0
0 0 0 0 0 0 0 0 0 0 0 0 0 0 0 0 0 0 0 0 0 0 0 0 0 0 0 0 0 0 0 0 0 0 0 0 0 0 0 0 0 0 0 0 0 0 0 0 0
0 0 0 0 0 0 0 0 0 0 0 0 -0 0 0 0 0 0 0 0 0 0 0 0 0 0 0 0 0 0 0 0 0 0 0 0 0 0 0 0 0 0 0 0 0 0 0 0 0
0 0 0 0 0 0 0 0 0 0 0 0 0 0 0 0 0 0 0 0 0 0 0 0 0 0 0 0 0 0 0 0 0 0 0 0 0 0 0 0 0 0 0 0 0 0 0 0 0
0 0 0 0 0 0 0 0 0 0 0 0 0 0 0 0 0 0 0 0 0 0 0 0 0 0 0 0 0 0 0 0 0 0 0 0 0 0 0 0 0 0 0 0 0 0 0 0 0
0 0 0 0 0 0 0 0 0 0 0 -0 0 0 0 0 0 0 0 0 0 0 0 0 0 0 0 0 0 0 0 0 0 0 0 0 0 0 0 0 0 0 0 0 0 0 0 0 0
0 0 0 0 0 0 0 0 0 0 -0 0 0 0 0 0 0 0 0 0 0 0 0 0 0 0 0 0 0 0 0 0 0 0 0 0 0 0 0 0 0 0 0 0 0 0 0 0 0
0 0 0 0 0 0 0 0 0 -0 -0 -0 0 0 0 0 -0 0 0 0 0 0 0 0 0 0 0 0 0 0 0 0 0 0 0 0 0 0 0 0 0 0 0 0 0 0 0 0 0
0 0 0 0 0 0 0 0 0 0 0 0 0 0 0 0 0 0 0 0 0 0 0 0 0 0 0 0 0 0 0 0 0 0 0 0 0 0 0 0 0 0 0 0 0 0 0 0 0
0 0 0 0 0 0 0 -0 -0 0 0 0 0 0 0 0 0 0 0 0 0 0 -0 -0 0 0 -0 0 0 0 0 0 0 0 0 0 0 0 0 0 0 0 0 0 0 0 0 0 0
0 0 0 -0 0 0 -0 -0 0 -0 0 0 0 0 0 0 0 0 0 0 0 0 0 0 -0 0 0 0 0 0 0 0 0 0 0 0 0 0 0 0 0 0 0 0 0 0 0 0 0
0 0 -0 -0 0 0 0 0 -0 0 0 0 0 0 0 0 0 0 0 0 0 0 0 0 0 0 0 0 0 0 0 0 0 0 0 0 0 0 0 0 0 0 0 0 0 0 0 0 0
-0 -0 -0 0 0 0 0 0 -0 0 0 0 0 0 0 0 0 0 0 0 0 0 0 0 0 0 0 0 0 0 0 0 0 0 0 0 0 0 0 0 0 0 0 0 0 0 0 0 0
Wind_Speed_500mb
6 5 10 4 7 8 7 10 4 3 2 2 8 8 10 9 3 5 25 27 40 34 32 34 34 30 28 23 22 22 19 17 14 12 12 11 12 12 12 11 12 12 13 13 12 10 10 10 10
5 7 4 5 8 5 10 8 9 7 16 24 17 10 7 5 6 19 32 34 42 33 31 31 31 29 27 25 22 19 17 13 9 7 6 7 10 12 13 12 10 12 12 12 11 11 12 12 12
6 8 2 7 6 7 8 9 5 4 30 8 10 10 7 10 12 35 27 44 42 34 30 27 31 28 26 24 22 18 14 5 3 3 6 9 11 12 13 12 10 13 13 11 11 13 14 13 13
11 6 6 6 9 13 12 13 10 15 6 9 16 12 11 5 20 25 42 42 40 34 30 34 32 25 18 20 16 11 9 1 2 5 8 9 11 13 10 13 14 15 15 12 13 13 13 12 14
12 3 4 1 8 10 11 14 21 13 11 13 19 12 10 24 18 25 40 39 33 31 29 24 19 16 14 14 9 7 4 2 5 6 7 10 11 14 10 9 16 15 15 15 14 15 15 14 12
4 4 4 6 7 11 15 16 16 9 14 16 13 22 12 28 19 38 37 35 29 27 26 22 20 14 14 12 9 8 5 4 5 6 7 8 16 18 11 5 11 17 14 15 14 14 11 11 7
10 7 8 6 8 14 11 14 12 16 10 10 18 12 11 33 33 40 41 38 35 29 22 25 23 18 16 14 12 11 8 7 7 9 7 10 15 17 14 14 8 7 7 9 8 10 11 12 13
9 8 4 7 4 14 11 16 10 28 15 13 23 12 13 49 48 48 46 40 35 28 26 25 25 21 17 14 11 10 7 7 6 7 9 12 20 19 17 20 19 18 16 5 3 15 22 18 25
10 7 7 11 8 14 8 12 9 18 21 15 23 8 9 53 61 58 55 49 40 33 30 28 26 24 16 11 10 7 6 7 10 14 15 19 24 20 22 23 21 21 21 18 21 24 25 29 26
9 8 15 12 9 13 17 23 27 15 13 11 19 17 21 62 70 69 65 58 47 39 35 27 23 20 17 13 9 7 7 9 13 15 17 22 24 22 26 25 23 24 22 22 24 27 28 31 31
9 9 9 19 22 14 10 7 25 20 6 34 52 46 46 71 74 70 62 48 39 34 31 27 26 22 18 12 8 6 6 9 13 15 19 24 21 21 27 22 24 25 25 24 27 29 30 31 29
2 14 11 15 19 21 8 4 11 30 9 21 46 47 60 76 79 74 63 50 41 33 29 30 29 24 20 13 6 2 4 7 10 14 21 22 20 20 23 25 27 28 27 24 26 30 32 31 29
7 6 14 27 27 24 25 18 4 10 30 27 23 49 63 75 75 66 52 42 34 35 34 30 28 22 17 10 4 4 5 7 10 15 20 21 21 21 27 27 30 32 31 29 29 30 32 32 29
4 11 12 26 21 11 12 8 9 24 20 5 30 50 61 71 72 70 56 42 40 37 35 32 26 21 15 9 8 9 10 12 17 22 26 27 26 26 29 29 31 34 33 33 33 33 32 32 31
10 5 8 22 26 15 11 12 13 26 9 14 30 46 59 64 69 66 52 42 40 39 34 30 26 22 18 15 14 14 16 22 26 30 33 34 33 32 32 34 34 34 35 34 35 36 34 33 33
9 9 9 10 24 15 8 11 17 29 10 9 25 42 54 60 63 59 45 41 40 38 35 32 28 24 23 20 17 19 24 28 33 35 38 38 37 36 37 38 38 36 37 39 41 40 37 34 34
14 2 9 16 14 6 15 8 16 35 15 12 27 38 45 50 59 55 46 41 39 37 36 34 28 26 23 19 20 26 32 37 39 43 42 40 38 39 41 42 42 41 41 41 42 43 39 36 33
5 6 5 8 11 15 12 10 14 46 44 21 27 34 41 48 55 53 50 44 42 40 37 34 28 24 20 22 27 33 38 39 42 44 43 40 39 40 42 44 43 43 47 48 46 44 39 37 36
11 5 3 8 6 8 5 9 16 29 53 48 12 41 46 49 49 49 46 47 51 45 41 36 29 25 25 28 33 36 37 42 47 46 44 40 38 38 41 46 51 52 52 49 47 46 44 42 40
7 7 8 11 13 5 8 11 13 17 30 40 10 36 43 44 43 41 42 42 49 48 44 38 30 27 28 32 36 40 46 53 53 45 41 42 43 44 48 52 52 51 53 52 50 53 54 51 46
3 9 7 14 11 7 7 7 19 21 24 52 24 17 25 35 35 35 36 36 38 43 42 31 28 27 32 37 41 45 54 56 50 47 49 46 44 46 47 50 55 56 52 50 50 52 54 55 51
7 6 10 13 3 3 7 6 12 23 22 34 27 19 16 21 25 28 27 17 28 36 28 25 25 30 36 41 46 54 58 54 51 54 56 54 51 51 52 54 54 53 52 54 55 57 61 58 58
10 22 9 4 3 7 17 8 13 15 23 32 28 21 28 26 29 30 22 24 29 22 22 20 27 34 39 45 53 55 52 50 55 59 58 55 54 51 51 51 51 52 52 53 54 54 55 60 60
20 12 8 6 5 7 11 5 10 8 14 13 23 24 17 24 23 28 31 27 22 14 12 23 30 36 44 51 52 50 52 56 63 62 60 59 56 55 52 50 51 53 56 59 59 56 58 66 68
24 10 8 10 9 6 7 8 8 18 13 11 13 18 15 29 39 36 28 18 3 10 17 26 35 42 46 48 49 52 56 61 65 66 65 67 69 66 59 56 58 61 64 67 69 71 69 68 69
10 5 7 6 1 6 9 3 4 6 12 19 21 19 28 36 34 25 15 6 8 17 26 33 39 45 46 49 53 56 61 65 69 69 69 72 73 75 73 69 61 69 72 72 73 78 84 74 79
12 11 1 2 6 4 3 1 11 7 11 19 19 25 32 28 21 13 8 10 17 25 33 40 44 46 48 55 59 62 66 68 71 72 72 74 76 75 73 70 68 63 67 64 61 67 72 72 72
11 9 5 7 7 7 7 3 5 8 8 8 13 22 23 17 12 7 10 15 24 32 37 42 46 50 55 60 63 68 70 72 75 76 76 74 74 71 66 64 58 66 61 41 54 54 53 49 69
10 10 9 4 3 1 5 5 10 9 3 11 17 18 16 11 5 6 13 21 29 35 41 47 50 53 58 63 68 71 74 75 72 69 67 66 67 73 66 57 50 56 43 44 44 36 44 43 53
8 5 7 7 9 5 2 5 5 11 3 24 23 20 13 5 3 10 16 24 31 38 45 47 52 60 62 64 66 69 71 70 66 63 59 59 62 52 29 42 42 37 33 32 32 30 31 34 44
Wind_Direction_500mb
321 161 133 123 51 56 281 266 271 232 294 341 125 128 132 75 128 184 144 149 163 161 159 155 152 151 146 142 140 135 125 121 114 98 81 63 47 29 18 23 36 36 37 29 24 15 350 319 309
300 186 153 100 89 56 275 262 232 218 153 119 101 103 76 103 112 145 146 154 162 164 162 158 154 156 151 152 142 137 130 125 108 87 53 25 8 358 1 358 13 24 22 25 20 357 332 319 307
215 184 176 94 104 180 226 228 244 133 151 164 116 76 108 142 149 153 148 149 161 162 161 151 156 154 155 152 145 148 146 129 116 51 3 360 348 354 355 14 2 19 9 15 0 345 333 329 312
175 171 76 99 216 253 221 273 186 134 198 187 140 90 126 155 146 157 157 154 159 159 154 158 160 165 158 155 159 155 157 62 355 346 347 351 345 352 11 25 349 10 360 6 1 349 346 338 329
176 132 64 182 247 260 256 270 182 167 175 168 166 168 124 143 142 149 155 155 160 156 163 179 179 173 154 153 147 148 163 342 346 341 7 3 354 0 29 360 3 358 360 4 5 354 7 351 345
112 93 53 253 245 270 289 262 164 180 175 164 145 134 143 169 164 160 159 156 157 164 170 182 169 155 146 140 145 142 132 68 38 36 37 29 7 5 18 347 357 0 358 9 16 4 49 53 3
127 92 230 240 255 299 247 180 190 178 170 220 160 121 159 171 174 167 162 160 161 164 174 175 170 155 144 138 129 123 101 70 54 45 27 3 6 6 356 340 354 21 15 9 26 320 304 338 322
195 106 264 259 240 268 242 193 215 184 202 185 176 183 188 178 171 168 166 164 164 164 169 170 168 157 150 137 124 113 89 62 37 23 7 360 0 359 346 329 304 305 303 316 317 270 308 314 315
172 73 252 248 207 252 217 197 199 187 151 174 192 209 214 173 167 170 169 169 168 168 169 169 164 163 160 144 124 95 45 24 1 352 347 349 347 348 343 332 321 316 312 291 276 289 295 305 308
126 142 225 213 220 254 287 228 188 160 148 193 203 208 187 170 172 176 176 174 172 171 167 168 169 169 162 141 117 75 29 352 344 337 338 338 336 336 338 335 331 329 319 297 287 291 297 303 309
163 200 219 275 288 287 277 251 177 128 241 213 209 188 178 174 178 181 180 180 173 167 170 170 168 165 156 143 117 57 8 339 332 330 332 331 329 331 333 334 333 331 326 305 295 294 298 304 310
257 257 261 279 304 319 266 256 200 190 268 274 235 209 183 180 182 182 179 176 173 174 173 172 168 164 163 158 140 59 1 335 322 326 331 327 322 320 326 327 327 335 337 320 304 300 303 306 309
190 259 314 326 316 331 314 266 3 357 314 293 209 188 183 182 182 182 178 173 177 177 175 174 173 170 176 178 201 281 290 312 321 321 324 319 313 311 313 318 322 331 335 331 322 310 302 302 302
250 292 336 360 344 21 3 340 74 343 342 147 171 175 181 183 182 179 177 179 182 176 176 178 176 182 195 213 246 280 292 313 317 317 318 316 308 305 307 307 311 318 323 326 322 320 308 300 295
293 324 32 3 347 13 340 12 33 356 5 135 167 179 181 183 185 183 177 182 180 180 180 183 188 195 209 226 254 280 298 308 309 307 310 309 303 300 297 295 296 305 309 313 315 317 310 301 292
38 47 34 323 10 351 57 297 350 7 357 150 175 181 183 186 187 185 184 186 187 188 191 192 195 203 213 231 263 291 300 302 303 305 306 304 296 285 279 280 286 293 296 303 308 310 307 302 296
10 15 15 336 32 328 40 343 331 4 325 231 198 188 185 186 191 191 192 196 200 198 201 201 200 211 227 255 293 304 305 306 307 305 300 296 288 281 273 271 278 279 284 289 292 296 298 299 298
335 26 355 315 328 34 32 356 323 14 15 318 214 186 186 192 196 196 199 205 208 210 209 212 214 224 250 282 298 303 305 307 306 301 298 293 286 279 270 272 274 276 279 280 276 283 287 291 294
94 77 310 290 285 91 67 34 339 354 19 1 237 187 188 194 198 201 207 214 215 214 212 217 226 245 265 284 297 300 306 310 313 309 302 297 291 282 271 272 275 277 278 279 268 270 270 274 283
70 51 343 293 294 162 120 34 331 6 21 12 6 182 183 187 195 197 209 221 225 219 213 219 235 251 274 287 294 302 310 317 313 307 303 300 293 286 282 281 281 279 277 270 261 260 258 263 266
28 43 299 246 322 13 126 5 6 348 28 24 49 157 173 183 173 186 204 218 220 210 208 222 242 263 278 286 297 306 312 311 310 307 305 303 299 295 289 286 285 282 278 270 263 256 252 255 257
301 357 276 291 100 167 26 281 25 343 349 18 29 110 121 154 165 183 197 192 185 188 204 232 253 275 287 298 307 312 313 314 315 313 309 305 301 296 290 286 282 278 275 269 262 259 255 251 244
276 315 283 280 116 85 356 66 330 325 351 5 23 58 123 154 175 176 163 165 167 187 221 249 278 291 300 307 310 312 314 315 314 312 308 306 305 300 294 287 281 274 268 266 263 260 253 240 242
317 329 28 54 72 49 310 111 350 356 339 5 33 54 96 138 137 139 145 155 181 203 270 288 297 305 310 311 313 316 317 318 314 315 311 310 305 299 291 287 281 277 271 267 264 262 255 247 249
6 18 358 10 16 208 339 63 235 326 9 30 57 60 93 132 136 134 150 166 202 298 308 312 315 314 315 317 320 320 318 315 313 313 311 308 302 297 293 288 282 277 272 267 262 257 253 246 243
314 48 128 212 343 300 18 44 346 53 56 69 81 97 122 127 130 136 121 84 348 334 331 326 324 324 326 324 322 321 317 314 312 310 306 303 300 299 298 294 286 288 282 277 265 252 252 248 241
335 34 284 273 24 50 303 271 320 95 43 63 84 120 128 130 128 114 75 11 348 341 336 335 333 332 331 328 325 320 317 314 310 308 303 300 300 300 297 294 289 289 296 285 267 241 254 261 257
65 315 9 15 42 337 313 50 33 42 43 81 104 134 138 139 126 83 19 355 348 340 339 338 337 336 332 327 324 322 322 317 311 307 304 301 301 300 299 296 291 290 294 266 259 265 260 247 239
353 14 12 98 84 302 315 318 235 304 114 162 160 160 159 149 109 24 358 346 339 341 342 342 339 335 332 332 332 330 327 322 317 313 311 310 311 307 305 300 292 295 286 273 268 269 254 243 233
55 96 94 95 308 255 264 303 19 333 309 166 164 166 172 154 6 343 337 337 341 343 342 341 341 339 341 341 341 339 337 337 333 327 322 318 320 320 320 301 303 300 293 281 263 257 236 229 215
Wind_Speed_850mb
6 5 10 4 7 8 7 10 4 3 2 2 8 8 10 9 3 5 25 27 40 34 32 34 34 30 28 23 22 22 19 17 14 12 12 11 12 12 12 11 12 12 13 13 12 10 10 10 10
5 7 4 5 8 5 10 8 9 7 16 24 17 10 7 5 6 19 32 34 42 33 31 31 31 29 27 25 22 19 17 13 9 7 6 7 10 12 13 12 10 12 12 12 11 11 12 12 12
6 8 2 7 6 7 8 9 5 4 30 8 10 10 7 10 12 35 27 44 42 34 30 27 31 28 26 24 22 18 14 5 3 3 6 9 11 12 13 12 10 13 13 11 11 13 14 13 13
11 6 6 6 9 13 12 13 10 15 6 9 16 12 11 5 20 25 42 42 40 34 30 34 32 25 18 20 16 11 9 1 2 5 8 9 11 13 10 13 14 15 15 12 13 13 13 12 14
12 3 4 1 8 10 11 14 21 13 11 13 19 12 10 24 18 25 40 39 33 31 29 24 19 16 14 14 9 7 4 2 5 6 7 10 11 14 10 9 16 15 15 15 14 15 15 14 12
4 4 4 6 7 11 15 16 16 9 14 16 13 22 12 28 19 38 37 35 29 27 26 22 20 14 14 12 9 8 5 4 5 6 7 8 16 18 11 5 11 17 14 15 14 14 11 11 7
10 7 8 6 8 14 11 14 12 16 10 10 18 12 11 33 33 40 41 38 35 29 22 25 23 18 16 14 12 11 8 7 7 9 7 10 15 17 14 14 8 7 7 9 8 10 11 12 13
9 8 4 7 4 14 11 16 10 28 15 13 23 12 13 49 48 48 46 40 35 28 26 25 25 21 17 14 11 10 7 7 6 7 9 12 20 19 17 20 19 18 16 5 3 15 22 18 25
10 7 7 11 8 14 8 12 9 18 21 15 23 8 9 53 61 58 55 49 40 33 30 28 26 24 16 11 10 7 6 7 10 14 15 19 24 20 22 23 21 21 21 18 21 24 25 29 26
9 8 15 12 9 13 17 23 27 15 13 11 19 17 21 62 70 69 65 58 47 39 35 27 23 20 17 13 9 7 7 9 13 15 17 22 24 22 26 25 23 24 22 22 24 27 28 31 31
9 9 9 19 22 14 10 7 25 20 6 34 52 46 46 71 74 70 62 48 39 34 31 27 26 22 18 12 8 6 6 9 13 15 19 24 21 21 27 22 24 25 25 24 27 29 30 31 29
2 14 11 15 19 21 8 4 11 30 9 21 46 47 60 76 79 74 63 50 41 33 29 30 29 24 20 13 6 2 4 7 10 14 21 22 20 20 23 25 27 28 27 24 26 30 32 31 29
7 6 14 27 27 24 25 18 4 10 30 27 23 49 63 75 75 66 52 42 34 35 34 30 28 22 17 10 4 4 5 7 10 15 20 21 21 21 27 27 30 32 31 29 29 30 32 32 29
4 11 12 26 21 11 12 8 9 24 20 5 30 50 61 71 72 70 56 42 40 37 35 32 26 21 15 9 8 9 10 12 17 22 26 27 26 26 29 29 31 34 33 33 33 33 32 32 31
10 5 8 22 26 15 11 12 13 26 9 14 30 46 59 64 69 66 52 42 40 39 34 30 26 22 18 15 14 14 16 22 26 30 33 34 33 32 32 34 34 34 35 34 35 36 34 33 33
9 9 9 10 24 15 8 11 17 29 10 9 25 42 54 60 63 59 45 41 40 38 35 32 28 24 23 20 17 19 24 28 33 35 38 38 37 36 37 38 38 36 37 39 41 40 37 34 34
14 2 9 16 14 6 15 8 16 35 15 12 27 38 45 50 59 55 46 41 39 37 36 34 28 26 23 19 20 26 32 37 39 43 42 40 38 39 41 42 42 41 41 41 42 43 39 36 33
5 6 5 8 11 15 12 10 14 46 44 21 27 34 41 48 55 53 50 44 42 40 37 34 28 24 20 22 27 33 38 39 42 44 43 40 39 40 42 44 43 43 47 48 46 44 39 37 36
11 5 3 8 6 8 5 9 16 29 53 48 12 41 46 49 49 49 46 47 51 45 41 36 29 25 25 28 33 36 37 42 47 46 44 40 38 38 41 46 51 52 52 49 47 46 44 42 40
7 7 8 11 13 5 8 11 13 17 30 40 10 36 43 44 43 41 42 42 49 48 44 38 30 27 28 32 36 40 46 53 53 45 41 42 43 44 48 52 52 51 53 52 50 53 54 51 46
3 9 7 14 11 7 7 7 19 21 24 52 24 17 25 35 35 35 36 36 38 43 42 31 28 27 32 37 41 45 54 56 50 47 49 46 44 46 47 50 55 56 52 50 50 52 54 55 51
7 6 10 13 3 3 7 6 12 23 22 34 27 19 16 21 25 28 27 17 28 36 28 25 25 30 36 41 46 54 58 54 51 54 56 54 51 51 52 54 54 53 52 54 55 57 61 58 58
10 22 9 4 3 7 17 8 13 15 23 32 28 21 28 26 29 30 22 24 29 22 22 20 27 34 39 45 53 55 52 50 55 59 58 55 54 51 51 51 51 52 52 53 54 54 55 60 60
20 12 8 6 5 7 11 5 10 8 14 13 23 24 17 24 23 28 31 27 22 14 12 23 30 36 44 51 52 50 52 56 63 62 60 59 56 55 52 50 51 53 56 59 59 56 58 66 68
24 10 8 10 9 6 7 8 8 18 13 11 13 18 15 29 39 36 28 18 3 10 17 26 35 42 46 48 49 52 56 61 65 66 65 67 69 66 59 56 58 61 64 67 69 71 69 68 69
10 5 7 6 1 6 9 3 4 6 12 19 21 19 28 36 34 25 15 6 8 17 26 33 39 45 46 49 53 56 61 65 69 69 69 72 73 75 73 69 61 69 72 72 73 78 84 74 79
12 11 1 2 6 4 3 1 11 7 11 19 19 25 32 28 21 13 8 10 17 25 33 40 44 46 48 55 59 62 66 68 71 72 72 74 76 75 73 70 68 63 67 64 61 67 72 72 72
11 9 5 7 7 7 7 3 5 8 8 8 13 22 23 17 12 7 10 15 24 32 37 42 46 50 55 60 63 68 70 72 75 76 76 74 74 71 66 64 58 66 61 41 54 54 53 49 69
10 10 9 4 3 1 5 5 10 9 3 11 17 18 16 11 5 6 13 21 29 35 41 47 50 53 58 63 68 71 74 75 72 69 67 66 67 73 66 57 50 56 43 44 44 36 44 43 53
8 5 7 7 9 5 2 5 5 11 3 24 23 20 13 5 3 10 16 24 31 38 45 47 52 60 62 64 66 69 71 70 66 63 59 59 62 52 29 42 42 37 33 32 32 30 31 34 44
Wind_Direction_850mb
321 161 133 123 51 56 281 266 271 232 294 341 125 128 132 75 128 184 144 149 163 161 159 155 152 151 146 142 140 135 125 121 114 98 81 63 47 29 18 23 36 36 37 29 24 15 350 319 309
300 186 153 100 89 56 275 262 232 218 153 119 101 103 76 103 112 145 146 154 162 164 162 158 154 156 151 152 142 137 130 125 108 87 53 25 8 358 1 358 13 24 22 25 20 357 332 319 307
215 184 176 94 104 180 226 228 244 133 151 164 116 76 108 142 149 153 148 149 161 162 161 151 156 154 155 152 145 148 146 129 116 51 3 360 348 354 355 14 2 19 9 15 0 345 333 329 312
175 171 76 99 216 253 221 273 186 134 198 187 140 90 126 155 146 157 157 154 159 159 154 158 160 165 158 155 159 155 157 62 355 346 347 351 345 352 11 25 349 10 360 6 1 349 346 338 329
176 132 64 182 247 260 256 270 182 167 175 168 166 168 124 143 142 149 155 155 160 156 163 179 179 173 154 153 147 148 163 342 346 341 7 3 354 0 29 360 3 358 360 4 5 354 7 351 345
112 93 53 253 245 270 289 262 164 180 175 164 145 134 143 169 164 160 159 156 157 164 170 182 169 155 146 140 145 142 132 68 38 36 37 29 7 5 18 347 357 0 358 9 16 4 49 53 3
127 92 230 240 255 299 247 180 190 178 170 220 160 121 159 171 174 167 162 160 161 164 174 175 170 155 144 138 129 123 101 70 54 45 27 3 6 6 356 340 354 21 15 9 26 320 304 338 322
195 106 264 259 240 268 242 193 215 184 202 185 176 183 188 178 171 168 166 164 164 164 169 170 168 157 150 137 124 113 89 62 37 23 7 360 0 359 346 329 304 305 303 316 317 270 308 314 315
172 73 252 248 207 252 217 197 199 187 151 174 192 209 214 173 167 170 169 169 168 168 169 169 164 163 160 144 124 95 45 24 1 352 347 349 347 348 343 332 321 316 312 291 276 289 295 305 308
126 142 225 213 220 254 287 228 188 160 148 193 203 208 187 170 172 176 176 174 172 171 167 168 169 169 162 141 117 75 29 352 344 337 338 338 336 336 338 335 331 329 319 297 287 291 297 303 309
163 200 219 275 288 287 277 251 177 128 241 213 209 188 178 174 178 181 180 180 173 167 170 170 168 165 156 143 117 57 8 339 332 330 332 331 329 331 333 334 333 331 326 305 295 294 298 304 310
257 257 261 279 304 319 266 256 200 190 268 274 235 209 183 180 182 182 179 176 173 174 173 172 168 164 163 158 140 59 1 335 322 326 331 327 322 320 326 327 327 335 337 320 304 300 303 306 309
190 259 314 326 316 331 314 266 3 357 314 293 209 188 183 182 182 182 178 173 177 177 175 174 173 170 176 178 201 281 290 312 321 321 324 319 313 311 313 318 322 331 335 331 322 310 302 302 302
250 292 336 360 344 21 3 340 74 343 342 147 171 175 181 183 182 179 177 179 182 176 176 178 176 182 195 213 246 280 292 313 317 317 318 316 308 305 307 307 311 318 323 326 322 320 308 300 295
293 324 32 3 347 13 340 12 33 356 5 135 167 179 181 183 185 183 177 182 180 180 180 183 188 195 209 226 254 280 298 308 309 307 310 309 303 300 297 295 296 305 309 313 315 317 310 301 292
38 47 34 323 10 351 57 297 350 7 357 150 175 181 183 186 187 185 184 186 187 188 191 192 195 203 213 231 263 291 300 302 303 305 306 304 296 285 279 280 286 293 296 303 308 310 307 302 296
10 15 15 336 32 328 40 343 331 4 325 231 198 188 185 186 191 191 192 196 200 198 201 201 200 211 227 255 293 304 305 306 307 305 300 296 288 281 273 271 278 279 284 289 292 296 298 299 298
335 26 355 315 328 34 32 356 323 14 15 318 214 186 186 192 196 196 199 205 208 210 209 212 214 224 250 282 298 303 305 307 306 301 298 293 286 279 270 272 274 276 279 280 276 283 287 291 294
94 77 310 290 285 91 67 34 339 354 19 1 237 187 188 194 198 201 207 214 215 214 212 217 226 245 265 284 297 300 306 310 313 309 302 297 291 282 271 272 275 277 278 279 268 270 270 274 283
70 51 343 293 294 162 120 34 331 6 21 12 6 182 183 187 195 197 209 221 225 219 213 219 235 251 274 287 294 302 310 317 313 307 303 300 293 286 282 281 281 279 277 270 261 260 258 263 266
28 43 299 246 322 13 126 5 6 348 28 24 49 157 173 183 173 186 204 218 220 210 208 222 242 263 278 286 297 306 312 311 310 307 305 303 299 295 289 286 285 282 278 270 263 256 252 255 257
301 357 276 291 100 167 26 281 25 343 349 18 29 110 121 154 165 183 197 192 185 188 204 232 253 275 287 298 307 312 313 314 315 313 309 305 301 296 290 286 282 278 275 269 262 259 255 251 244
276 315 283 280 116 85 356 66 330 325 351 5 23 58 123 154 175 176 163 165 167 187 221 249 278 291 300 307 310 312 314 315 314 312 308 306 305 300 294 287 281 274 268 266 263 260 253 240 242
317 329 28 54 72 49 310 111 350 356 339 5 33 54 96 138 137 139 145 155 181 203 270 288 297 305 310 311 313 316 317 318 314 315 311 310 305 299 291 287 281 277 271 267 264 262 255 247 249
6 18 358 10 16 208 339 63 235 326 9 30 57 60 93 132 136 134 150 166 202 298 308 312 315 314 315 317 320 320 318 315 313 313 311 308 302 297 293 288 282 277 272 267 262 257 253 246 243
314 48 128 212 343 300 18 44 346 53 56 69 81 97 122 127 130 136 121 84 348 334 331 326 324 324 326 324 322 321 317 314 312 310 306 303 300 299 298 294 286 288 282 277 265 252 252 248 241
335 34 284 273 24 50 303 271 320 95 43 63 84 120 128 130 128 114 75 11 348 341 336 335 333 332 331 328 325 320 317 314 310 308 303 300 300 300 297 294 289 289 296 285 267 241 254 261 257
65 315 9 15 42 337 313 50 33 42 43 81 104 134 138 139 126 83 19 355 348 340 339 338 337 336 332 327 324 322 322 317 311 307 304 301 301 300 299 296 291 290 294 266 259 265 260 247 239
353 14 12 98 84 302 315 318 235 304 114 162 160 160 159 149 109 24 358 346 339 341 342 342 339 335 332 332 332 330 327 322 317 313 311 310 311 307 305 300 292 295 286 273 268 269 254 243 233
55 96 94 95 308 255 264 303 19 333 309 166 164 166 172 154 6 343 337 337 341 343 342 341 341 339 341 341 341 339 337 337 333 327 322 318 320 320 320 301 303 300 293 281 263 257 236 229 215